Location: Newark
(45.4422°N, 16.2769°E)
Time: 19:16:40
(UTC+00:00)

Courier 1B - Pass Details

Date: 16 December 2019
Orbit: 962 x 1209 km, 28.3° (Epoch: 28 January)

Event Time Altitude Azimuth Distance (km) Brightness Sun altitude
Rises 22:09:54 0° 249° (WSW) 3,930 - -66.4°
Reaches altitude 10° 22:14:37 10° 223° (SW) 3,027 - -66.7°
Maximum altitude 22:17:32 13° 199° (SSW) 2,863 - -66.9°
Drops below altitude 10° 22:20:29 10° 176° (S) 3,083 - -67.1°
Sets 22:25:25 0° 150° (SSE) 4,079 - -67.3°
